Theta_e
319 319 318 318 318 318 318 318 318 318 319 319 319 319 320 321 320 313 301 311 314 336 334 315 320 315 312 311 327 337 319 313 315 317 320 329 325 331 335 329 332 334 330 335 339
318 318 318 318 318 318 318 318 318 318 319 319 319 319 320 320 310 306 315 326 331 338 310 307 313 311 307 309 313 323 318 318 324 324 323 326 329 328 328 328 328 330 335 337 338
319 318 318 318 318 318 318 318 318 318 318 317 318 319 319 317 303 303 335 332 338 334 308 306 311 313 308 310 312 322 319 326 326 328 329 327 328 330 326 323 326 327 330 334 334
320 319 318 318 318 318 318 318 318 317 317 317 319 320 320 308 296 312 342 337 339 327 304 303 307 308 307 307 312 320 329 326 329 329 329 327 330 325 328 329 332 333 333 333 333
320 320 319 318 317 318 318 318 317 317 317 317 319 320 309 299 302 317 343 337 328 307 303 302 308 308 306 307 324 321 327 328 332 329 330 332 328 327 327 332 335 335 334 332 333
319 319 319 318 317 318 318 318 317 317 317 317 319 320 303 295 311 326 330 324 312 303 299 301 308 309 308 320 316 329 328 326 329 329 329 325 327 328 328 334 333 333 331 332 333
319 319 319 317 318 317 317 317 317 316 317 317 319 317 302 299 320 319 316 313 308 302 299 300 303 305 307 319 328 327 321 324 324 327 326 331 323 323 331 332 331 331 331 333 333
318 318 318 317 317 316 315 315 315 316 317 319 320 309 299 309 313 314 315 313 310 302 301 301 305 303 305 325 326 321 319 311 321 326 327 325 315 326 332 330 329 331 332 333 334
318 318 316 315 314 314 313 314 316 318 319 320 307 303 302 320 311 313 314 310 305 301 299 308 304 299 312 314 308 311 306 312 316 326 323 322 314 325 331 330 328 329 330 332 332
318 317 315 314 313 312 312 316 319 318 319 320 316 301 305 306 309 309 311 307 302 300 301 299 299 297 296 302 292 301 306 313 313 320 322 318 315 324 328 329 327 328 330 329 331
317 317 316 315 313 312 308 305 302 302 308 304 304 306 309 312 310 307 310 307 303 300 295 298 296 293 295 299 303 309 309 311 317 321 318 316 318 322 326 327 326 326 326 327 330
317 316 316 315 314 313 305 301 302 306 300 308 311 311 313 311 305 306 310 303 300 295 297 296 293 299 301 301 300 299 308 310 316 319 317 317 316 322 324 325 324 325 325 326 328
316 316 315 313 312 308 304 305 308 307 298 304 309 309 307 310 303 302 306 302 298 295 295 294 298 304 302 301 305 301 307 311 310 315 315 316 310 317 323 325 325 322 328 328 328
316 315 313 311 305 306 304 309 309 307 294 299 301 306 305 304 300 309 304 301 298 295 295 294 299 300 298 298 306 299 315 313 312 307 302 315 300 309 318 320 322 322 323 326 329
315 315 312 310 302 304 306 308 307 304 285 303 301 308 302 300 300 303 305 302 295 296 296 295 296 296 295 297 303 302 316 313 313 310 308 308 304 306 317 316 319 319 321 325 329
315 313 311 306 302 308 310 307 306 292 286 297 302 299 299 299 301 303 301 303 302 297 296 296 300 298 299 312 308 319 314 312 310 308 299 306 304 302 310 315 320 320 322 324 328
312 310 309 309 303 308 307 305 292 285 296 295 293 296 296 296 299 300 298 294 293 290 289 295 296 311 316 311 314 308 300 293 292 296 297 306 305 308 314 319 323 321 321 323 328
309 308 307 309 307 308 306 296 286 295 292 296 296 299 296 297 296 298 295 294 295 293 289 288 288 309 311 310 307 303 297 292 289 292 297 309 301 306 317 321 323 325 323 325 326
308 302 303 306 309 306 302 291 289 291 295 295 295 295 296 301 299 298 295 296 297 294 292 289 291 299 302 312 311 304 299 304 301 303 299 303 307 313 317 317 320 321 322 323 325
303 304 303 310 310 305 298 293 295 301 296 296 291 295 292 297 298 296 297 301 300 301 297 294 291 297 301 307 309 305 306 299 300 294 293 300 301 303 311 315 318 319 321 323 325
305 300 305 309 307 302 293 293 299 303 299 296 293 292 292 296 296 295 296 301 303 301 300 295 293 295 296 294 294 295 295 295 300 299 294 295 299 312 312 319 321 323 324 322 324
297 297 306 306 301 292 294 298 302 301 298 297 297 296 294 298 295 294 295 299 306 301 296 296 291 289 294 299 300 295 293 292 291 291 297 299 295 317 319 322 324 322 322 323 326
296 297 307 305 293 292 293 297 301 297 294 296 295 297 299 297 295 299 301 306 306 305 299 298 290 287 291 295 299 300 305 296 290 292 293 291 293 318 318 319 321 321 323 325 326
298 295 300 300 296 295 294 297 295 299 297 297 297 298 298 298 298 296 296 304 306 306 314 304 289 289 287 290 296 299 304 305 292 289 290 292 303 313 315 316 320 321 323 326 325
298 295 299 297 299 298 296 295 296 294 297 298 295 298 298 294 295 293 296 299 303 307 302 298 292 292 294 296 304 303 304 308 303 302 293 298 305 313 314 315 317 320 324 327 327
298 303 304 301 301 299 295 297 295 296 296 294 294 297 299 296 297 294 295 295 296 299 296 298 294 293 296 302 304 301 304 307 308 308 309 309 308 317 316 318 319 321 323 323 327
298 303 305 301 300 299 300 303 304 299 298 300 298 299 296 299 301 299 298 296 295 295 295 295 293 292 289 297 299 294 300 303 308 309 308 303 308 315 315 317 319 320 320 324 330
Wind_Speed
10 10 9 9 9 9 9 9 10 10 10 11 11 12 12 14 13 2 6 9 5 3 4 5 2 2 2 2 3 2 3 3 6 7 6 5 3 3 6 8 3 2 8 10 13
11 10 10 9 9 8 9 9 9 10 10 10 11 12 12 13 3 5 10 7 9 4 3 5 4 5 3 1 1 2 2 6 2 6 6 6 2 6 6 4 7 13 13 15 15
10 10 10 10 9 9 9 9 9 10 10 10 10 11 12 8 3 6 2 14 10 4 1 2 3 3 2 0 2 3 2 5 9 7 8 5 5 1 13 3 8 18 16 15 15
10 9 9 10 10 9 9 9 10 9 9 9 10 11 12 0 4 2 3 13 9 6 1 4 2 4 3 2 2 2 1 5 7 9 5 3 6 5 3 4 14 18 20 16 14
11 10 10 10 10 11 11 10 10 9 8 9 10 10 3 2 7 3 4 12 6 4 3 3 2 3 3 2 1 3 3 3 4 7 12 3 6 5 1 14 13 15 16 15 12
11 12 11 11 11 12 12 11 11 9 8 8 8 8 2 1 2 4 9 7 4 5 3 2 4 1 1 2 2 3 9 5 8 8 10 6 5 4 7 14 14 17 15 13 13
12 13 13 13 12 12 13 13 11 9 7 7 6 3 1 6 5 5 6 4 4 2 4 3 2 5 3 2 1 5 5 3 8 3 6 10 12 12 9 17 16 14 13 11 11
13 14 15 14 13 13 14 15 11 7 5 5 4 2 6 2 3 1 3 3 5 4 1 2 3 2 1 1 4 3 3 3 4 3 3 3 6 8 8 18 18 14 13 12 11
14 15 16 15 15 15 17 17 9 6 4 3 1 0 4 2 2 2 6 5 5 1 3 2 4 3 2 3 4 5 2 3 2 5 3 3 4 3 6 16 15 15 13 13 10
13 14 15 15 15 15 19 10 6 5 2 4 4 2 3 3 2 4 2 7 4 4 3 2 5 4 4 4 3 2 4 4 4 6 4 1 5 8 7 7 14 16 14 10 11
14 13 14 12 14 14 8 2 4 3 2 5 3 4 5 7 2 3 3 4 3 4 3 2 5 5 5 5 4 4 4 6 4 6 7 5 3 7 12 5 10 13 14 12 14
15 15 15 14 14 11 1 3 3 3 8 4 3 6 5 2 3 3 6 5 2 3 3 7 2 5 3 4 2 3 7 3 2 3 3 4 3 4 11 5 6 16 13 16 8
16 16 16 17 17 1 1 3 4 2 2 7 4 4 3 6 3 2 5 3 4 3 3 6 2 7 3 3 5 3 5 4 4 3 2 4 2 6 6 4 7 6 16 13 17
17 16 18 22 3 3 4 1 5 4 6 6 2 3 3 2 1 2 2 4 4 3 3 2 2 3 3 3 5 4 5 10 10 2 1 5 5 4 9 10 7 6 10 14 16
17 15 15 9 4 2 1 6 3 4 5 4 3 0 0 4 1 4 1 4 2 2 6 7 3 4 3 7 8 4 9 8 3 4 2 4 3 5 9 9 12 8 9 13 15
16 13 12 0 1 7 6 5 4 7 3 6 1 1 2 3 3 2 3 5 1 2 1 7 2 4 5 1 6 12 8 8 5 3 2 1 7 5 6 17 20 6 9 12 12
17 10 4 1 3 5 5 4 7 6 3 7 3 4 1 4 3 2 2 2 2 5 5 6 2 1 5 9 7 6 7 4 4 3 0 4 3 9 9 7 20 16 13 11 14
20 6 5 5 3 6 4 6 6 1 5 4 4 3 4 1 4 2 3 2 1 3 2 2 4 7 6 7 9 6 6 7 7 6 3 2 6 6 4 5 16 16 15 13 14
14 0 2 4 7 0 6 5 6 4 4 5 2 6 7 5 4 4 4 1 1 3 3 2 5 4 5 4 11 6 4 5 7 3 3 1 6 6 7 13 9 16 16 17 15
2 3 3 3 6 4 6 4 4 4 3 3 3 2 3 7 4 4 4 4 4 3 3 3 2 3 5 3 2 8 6 1 2 4 2 3 3 6 11 13 7 13 19 19 18
3 3 3 2 1 6 3 5 5 6 4 3 2 2 1 1 3 2 1 3 4 5 4 2 2 7 2 4 3 1 1 2 3 4 6 4 7 4 4 10 9 10 13 16 16
2 2 4 1 5 1 2 5 4 4 2 1 3 3 2 2 3 2 1 3 4 2 2 1 4 3 4 3 4 1 1 4 5 4 2 3 5 7 7 2 3 0 6 8 13
2 3 3 3 3 2 4 4 6 4 3 1 2 1 2 4 3 1 2 3 4 2 2 2 2 3 7 7 4 5 3 1 2 3 5 5 5 4 5 6 5 2 2 5 10
2 1 4 4 0 5 1 5 2 3 3 4 3 3 3 2 3 3 2 2 4 3 8 6 2 5 6 5 2 1 4 2 2 3 3 4 2 2 5 6 6 5 5 1 8
3 1 2 2 2 1 1 2 2 3 2 3 2 3 6 4 1 2 1 4 4 7 3 5 1 2 5 4 1 1 1 4 2 2 4 2 3 3 3 4 4 4 5 3 4
2 2 4 2 2 1 1 1 3 3 6 3 7 4 3 6 8 8 5 3 5 2 3 2 1 2 2 2 5 1 1 6 4 3 4 3 2 1 3 2 5 7 6 4 4
2 2 3 3 2 2 3 2 5 5 2 5 9 5 5 6 6 1 3 4 1 2 1 2 4 2 5 3 5 5 2 1 4 1 3 3 3 3 2 3 4 5 6 6 4
Wind_Direction
4 1 358 355 351 346 338 335 327 324 323 325 326 325 326 328 322 161 242 220 178 199 140 119 159 174 78 87 128 254 80 145 159 136 169 233 133 176 98 130 63 106 120 125 130
0 359 355 352 347 340 335 331 328 326 324 324 324 323 326 333 314 259 244 215 216 134 112 142 147 143 67 84 141 129 146 185 117 147 176 172 239 150 130 98 98 90 93 126 137
352 356 352 348 343 334 328 327 324 323 323 327 325 323 324 332 295 247 241 206 191 210 169 123 122 114 107 182 178 174 218 147 166 150 155 221 228 161 131 109 176 142 139 143 145
348 348 350 345 337 328 325 321 316 318 322 320 323 326 324 28 125 16 337 187 165 143 90 98 66 86 105 207 219 180 121 164 142 163 119 123 336 133 167 154 151 148 151 150 156
343 340 341 342 335 330 325 320 316 316 317 320 320 330 352 317 258 330 98 148 124 103 85 105 101 131 145 246 278 159 93 62 47 150 113 54 267 19 188 131 141 140 148 156 158
343 340 338 334 335 329 325 317 317 312 312 313 316 329 353 14 348 72 115 94 110 102 101 139 171 293 358 33 66 88 89 52 60 141 129 158 208 80 260 135 142 152 160 163 167
342 340 334 333 331 329 318 316 312 304 301 306 305 311 41 229 78 102 110 138 126 105 132 213 159 52 353 77 124 144 93 63 40 6 98 154 140 200 178 151 155 165 162 169 176
341 339 335 333 334 329 318 312 303 284 276 269 280 272 247 216 132 237 138 87 76 80 203 230 169 44 85 340 36 38 76 87 9 350 50 173 136 192 176 161 163 169 167 175 181
335 335 337 337 337 332 325 315 287 228 209 156 264 306 293 12 259 213 145 122 102 110 296 253 124 96 52 90 34 12 88 61 99 352 116 67 135 190 234 174 167 173 178 182 171
331 336 337 335 335 334 327 321 135 130 191 200 247 16 303 285 237 133 166 141 115 95 33 70 57 79 43 69 188 168 107 75 52 16 61 49 173 190 208 200 180 181 185 182 172
328 324 321 325 332 331 343 37 7 1 138 224 234 247 283 287 196 111 150 95 110 78 117 11 87 197 180 190 141 124 92 87 77 32 21 359 153 192 207 232 205 187 182 189 194
326 325 322 319 318 319 214 71 144 149 314 244 250 279 267 246 15 82 133 103 139 109 106 32 233 217 164 169 152 123 123 99 105 126 118 271 234 173 202 250 264 194 185 197 169
325 325 327 331 324 153 321 234 67 64 166 300 201 228 223 141 166 173 126 129 122 115 94 136 227 121 157 154 151 197 139 164 145 218 154 297 275 161 201 196 268 204 192 186 183
325 327 335 329 322 315 276 192 318 192 60 302 324 311 108 118 20 168 113 132 41 145 140 216 284 193 161 189 143 214 196 121 133 127 85 78 300 213 182 204 224 210 194 197 191
326 327 335 349 289 273 47 326 114 64 57 290 294 31 331 117 208 13 292 42 129 120 82 259 233 183 185 209 161 171 114 107 116 83 56 84 306 269 165 209 222 213 200 199 189
320 321 329 144 271 253 319 325 58 40 12 338 301 359 64 10 38 88 57 51 43 132 332 241 253 169 193 1 145 120 90 51 64 51 71 239 200 271 185 214 205 203 212 194 183
317 305 274 280 232 321 308 44 36 92 331 312 303 21 61 25 31 69 110 45 104 25 358 324 260 62 113 77 3 85 82 45 23 40 232 285 226 266 272 197 198 202 203 194 187
322 313 221 229 316 346 56 55 72 262 262 303 355 35 89 84 8 54 70 38 118 117 114 77 325 168 169 171 177 180 135 155 165 188 208 79 229 251 238 189 198 201 186 191 190
321 314 263 257 200 59 76 63 196 205 275 327 21 53 1 8 102 71 10 187 256 199 139 92 289 282 225 148 141 214 216 202 113 320 111 243 296 302 246 265 198 188 180 189 190
357 358 269 120 161 81 75 213 226 209 301 59 90 45 44 341 55 52 13 312 336 50 105 215 325 261 288 113 351 149 166 138 17 134 200 244 268 270 225 226 232 192 199 199 188
37 48 306 81 125 52 136 225 257 246 231 115 151 91 75 79 68 57 328 293 343 339 89 118 99 291 353 13 209 62 169 20 122 126 161 179 249 311 257 216 201 206 225 207 183
30 63 335 22 55 15 159 197 249 302 69 64 87 113 121 108 73 93 185 230 338 319 39 43 136 270 228 275 265 96 86 151 138 223 239 177 277 346 342 26 102 266 210 184 177
54 263 328 63 137 272 282 261 222 214 205 123 121 67 42 126 105 107 308 283 0 76 43 176 12 8 353 354 5 58 351 43 98 68 198 151 276 2 344 31 40 74 119 145 158
66 34 332 48 115 147 236 272 241 189 111 87 105 101 103 76 21 142 331 300 337 51 56 91 128 154 196 229 193 79 351 12 139 132 173 232 153 313 342 6 15 16 359 154 141
41 259 182 251 284 146 217 298 240 154 100 116 81 175 155 137 83 159 254 329 348 345 57 88 219 240 263 249 140 129 292 3 86 161 187 34 124 234 288 320 341 336 1 20 160
82 29 348 244 302 23 90 258 212 221 146 186 148 192 153 153 181 204 174 197 233 341 61 15 227 329 281 352 213 187 197 122 48 332 263 136 125 24 320 347 5 7 5 26 12
323 317 120 282 337 107 222 218 262 158 210 178 154 127 138 194 184 181 146 86 57 203 153 92 119 73 269 11 334 298 309 8 142 198 268 221 196 157 116 68 4 354 15 21 40